• In Russia
  • List of Countries
  • For 7 days
  • Water Temperature
  • Satellite Maps
  • Weather Map
  • Weather Widgets
  • user-avatar
    Login

    Hourly Weather Kopalina

    Today, 22 September, Saturday

    Time Temperature Precipitation Wind Pressure Humidity
    00:00 +16°C° 0.8 mm 6 mps 747 mmHg 80%
    01:00 +14°C° 0 mm 5 mps 748 mmHg 80%
    02:00 +14°C° 0.2 mm 4 mps 749 mmHg 79%
    03:00 +13°C° 0.2 mm 4 mps 749 mmHg 78%
    04:00 +13°C° 0.2 mm 3 mps 750 mmHg 77%
    05:00 +13°C° 0 mm 3 mps 751 mmHg 76%
    06:00 +13°C° 0 mm 4 mps 751 mmHg 75%
    07:00 +13°C° 0 mm 4 mps 752 mmHg 73%
    08:00 +14°C° 0 mm 5 mps 752 mmHg 66%
    09:00 +15°C° 0 mm 6 mps 752 mmHg 59%
    10:00 +16°C° 0 mm 6 mps 751 mmHg 52%
    11:00 +16°C° 0 mm 6 mps 751 mmHg 50%
    12:00 +17°C° 0 mm 6 mps 751 mmHg 48%
    13:00 +17°C° 0 mm 6 mps 751 mmHg 46%
    14:00 +17°C° 0 mm 6 mps 751 mmHg 46%
    15:00 +17°C° 0 mm 5 mps 751 mmHg 47%
    16:00 +18°C° 0 mm 4 mps 751 mmHg 48%
    17:00 +17°C° 0 mm 4 mps 751 mmHg 50%
    18:00 +16°C° 0 mm 3 mps 751 mmHg 53%
    19:00 +15°C° 0 mm 2 mps 751 mmHg 55%
    20:00 +15°C° 0 mm 2 mps 751 mmHg 56%
    21:00 +14°C° 0 mm 3 mps 751 mmHg 56%
    22:00 +13°C° 0 mm 3 mps 751 mmHg 57%
    23:00 +13°C° 0 mm 3 mps 751 mmHg 59%

    Tomorrow, 23 September, Sunday

    Time Temperature Precipitation Wind Pressure Humidity
    00:00 +13°C° 0 mm 3 mps 751 mmHg 62%
    01:00 +12°C° 0 mm 3 mps 751 mmHg 64%
    02:00 +12°C° 0 mm 3 mps 751 mmHg 67%
    03:00 +12°C° 0 mm 3 mps 750 mmHg 70%
    04:00 +11°C° 0 mm 3 mps 750 mmHg 72%
    05:00 +12°C° 0 mm 3 mps 750 mmHg 73%
    06:00 +12°C° 0 mm 3 mps 750 mmHg 74%
    07:00 +12°C° 0 mm 3 mps 750 mmHg 75%
    08:00 +13°C° 0.1 mm 3 mps 750 mmHg 73%
    09:00 +13°C° 0.1 mm 3 mps 750 mmHg 70%
    10:00 +14°C° 0.1 mm 3 mps 750 mmHg 68%
    11:00 +14°C° 0.1 mm 3 mps 749 mmHg 69%
    12:00 +14°C° 0.1 mm 3 mps 749 mmHg 70%
    13:00 +14°C° 0.1 mm 3 mps 748 mmHg 70%
    14:00 +14°C° 0.6 mm 3 mps 747 mmHg 75%
    15:00 +14°C° 0.6 mm 2 mps 746 mmHg 80%
    16:00 +14°C° 0.6 mm 2 mps 746 mmHg 85%
    17:00 +13°C° 1.7 mm 3 mps 744 mmHg 86%
    18:00 +13°C° 1.7 mm 4 mps 743 mmHg 87%
    19:00 +13°C° 1.7 mm 6 mps 742 mmHg 89%
    20:00 +13°C° 2.1 mm 5 mps 742 mmHg 90%
    21:00 +12°C° 2.1 mm 4 mps 741 mmHg 90%
    22:00 +12°C° 2.1 mm 3 mps 741 mmHg 91%
    23:00 +12°C° 1.1 mm 5 mps 741 mmHg 91%

    Day after tomorrow, 24 September, Monday

    Time Temperature Precipitation Wind Pressure Humidity
    00:00 +10°C° 1.1 mm 6 mps 741 mmHg 90%
    01:00 +10°C° 1.1 mm 7 mps 742 mmHg 90%
    02:00 +9°C° 0.5 mm 7 mps 743 mmHg 88%
    03:00 +9°C° 0.5 mm 7 mps 745 mmHg 87%
    04:00 +7°C° 0.5 mm 8 mps 747 mmHg 85%
    05:00 +7°C° 0 mm 8 mps 748 mmHg 84%
    06:00 +9°C° 0 mm 8 mps 749 mmHg 82%
    07:00 +9°C° 0 mm 8 mps 750 mmHg 81%
    08:00 +8°C° 0.1 mm 9 mps 750 mmHg 75%
    09:00 +9°C° 0.1 mm 10 mps 751 mmHg 69%
    10:00 +9°C° 0.1 mm 10 mps 752 mmHg 64%
    11:00 +11°C° 0.2 mm 10 mps 753 mmHg 60%
    12:00 +11°C° 0.2 mm 11 mps 753 mmHg 57%
    13:00 +11°C° 0.2 mm 11 mps 753 mmHg 54%
    14:00 +11°C° 0.1 mm 10 mps 754 mmHg 52%
    15:00 +11°C° 0.1 mm 9 mps 754 mmHg 50%
    16:00 +11°C° 0.1 mm 9 mps 754 mmHg 49%
    17:00 +10°C° 0 mm 8 mps 755 mmHg 53%
    18:00 +9°C° 0 mm 7 mps 755 mmHg 57%
    19:00 +8°C° 0 mm 6 mps 756 mmHg 61%
    20:00 +8°C° 0 mm 6 mps 756 mmHg 63%
    21:00 +7°C° 0 mm 5 mps 757 mmHg 64%
    22:00 +7°C° 0 mm 5 mps 757 mmHg 65%
    23:00 +6°C° 0 mm 5 mps 758 mmHg 67%

    25 September, Tuesday

    Time Temperature Precipitation Wind Pressure Humidity
    00:00 +6°C° 0 mm 5 mps 758 mmHg 68%
    01:00 +6°C° 0 mm 5 mps 759 mmHg 70%
    02:00 +5°C° 0 mm 5 mps 759 mmHg 72%
    03:00 +5°C° 0 mm 5 mps 760 mmHg 75%
    04:00 +5°C° 0 mm 5 mps 760 mmHg 78%
    05:00 +5°C° 0 mm 5 mps 761 mmHg 77%
    06:00 +5°C° 0 mm 5 mps 762 mmHg 77%
    07:00 +5°C° 0 mm 5 mps 762 mmHg 77%
    08:00 +7°C° 0 mm 5 mps 763 mmHg 69%
    09:00 +8°C° 0 mm 5 mps 763 mmHg 61%
    10:00 +10°C° 0 mm 5 mps 764 mmHg 54%
    11:00 +10°C° 0 mm 5 mps 764 mmHg 51%
    12:00 +12°C° 0 mm 5 mps 764 mmHg 48%
    13:00 +13°C° 0 mm 5 mps 764 mmHg 45%
    14:00 +12°C° 0 mm 5 mps 764 mmHg 45%
    15:00 +12°C° 0 mm 4 mps 764 mmHg 45%
    16:00 +12°C° 0 mm 4 mps 764 mmHg 45%
    17:00 +11°C° 0 mm 3 mps 764 mmHg 48%
    18:00 +10°C° 0 mm 3 mps 765 mmHg 52%
    19:00 +8°C° 0 mm 2 mps 765 mmHg 55%
    20:00 +8°C° 0 mm 2 mps 765 mmHg 56%
    21:00 +7°C° 0 mm 2 mps 766 mmHg 57%
    22:00 +7°C° 0 mm 2 mps 766 mmHg 58%
    23:00 +7°C° 0 mm 2 mps 766 mmHg 59%

    26 September, Wednesday

    Time Temperature Precipitation Wind Pressure Humidity
    00:00 +6°C° 0 mm 2 mps 766 mmHg 60%
    01:00 +6°C° 0 mm 2 mps 766 mmHg 61%
    02:00 +6°C° 0 mm 2 mps 766 mmHg 61%
    03:00 +5°C° 0 mm 2 mps 765 mmHg 62%
    04:00 +5°C° 0 mm 2 mps 765 mmHg 62%
    05:00 +6°C° 0 mm 2 mps 765 mmHg 61%
    06:00 +5°C° 0 mm 3 mps 765 mmHg 61%
    07:00 +5°C° 0 mm 3 mps 765 mmHg 61%
    08:00 +8°C° 0 mm 3 mps 765 mmHg 55%
    09:00 +10°C° 0 mm 4 mps 764 mmHg 50%
    10:00 +12°C° 0 mm 4 mps 764 mmHg 44%
    11:00 +13°C° 0 mm 4 mps 763 mmHg 42%
    12:00 +14°C° 0 mm 5 mps 762 mmHg 40%
    13:00 +15°C° 0 mm 5 mps 762 mmHg 38%
    14:00 +15°C° 0 mm 5 mps 761 mmHg 40%
    15:00 +15°C° 0 mm 4 mps 761 mmHg 42%
    16:00 +15°C° 0 mm 4 mps 760 mmHg 45%
    17:00 +14°C° 0 mm 4 mps 760 mmHg 48%
    18:00 +12°C° 0 mm 4 mps 760 mmHg 51%
    19:00 +11°C° 0 mm 4 mps 760 mmHg 54%
    20:00 +10°C° 0 mm 4 mps 759 mmHg 54%
    21:00 +10°C° 0 mm 4 mps 759 mmHg 55%
    22:00 +10°C° 0 mm 4 mps 759 mmHg 55%
    23:00 +8°C° 0 mm 4 mps 759 mmHg 55%

    27 September, Thursday

    Time Temperature Precipitation Wind Pressure Humidity
    00:00 +8°C° 0 mm 4 mps 759 mmHg 56%
    01:00 +8°C° 0 mm 4 mps 758 mmHg 56%
    02:00 +8°C° 0 mm 4 mps 758 mmHg 58%
    03:00 +9°C° 0 mm 3 mps 758 mmHg 59%
    04:00 +9°C° 0 mm 3 mps 757 mmHg 60%
    05:00 +8°C° 0 mm 4 mps 757 mmHg 61%
    06:00 +8°C° 0 mm 4 mps 757 mmHg 61%
    07:00 +10°C° 0 mm 4 mps 757 mmHg 61%
    08:00 +12°C° 0 mm 4 mps 757 mmHg 56%
    09:00 +14°C° 0 mm 5 mps 757 mmHg 50%
    10:00 +16°C° 0 mm 5 mps 756 mmHg 44%
    11:00 +17°C° 0 mm 5 mps 756 mmHg 44%
    12:00 +19°C° 0 mm 6 mps 755 mmHg 43%
    13:00 +20°C° 0 mm 6 mps 755 mmHg 42%
    14:00 +20°C° 0 mm 5 mps 755 mmHg 46%
    15:00 +20°C° 0 mm 5 mps 754 mmHg 49%
    16:00 +20°C° 0 mm 5 mps 754 mmHg 52%
    17:00 +19°C° 0 mm 4 mps 754 mmHg 56%
    18:00 +17°C° 0 mm 4 mps 754 mmHg 61%
    19:00 +15°C° 0 mm 4 mps 754 mmHg 65%
    20:00 +14°C° 0 mm 4 mps 754 mmHg 66%
    21:00 +14°C° 0 mm 4 mps 754 mmHg 68%
    22:00 +14°C° 0 mm 4 mps 754 mmHg 69%
    23:00 +14°C° 0 mm 4 mps 754 mmHg 73%
    Show more